Regional Weather Roundup
Issued by NWS Wakefield, VA

Home | Current Version | Previous Version | Graphics & Text | Print | Product List | Glossary On
Versions: 1 2 3 4 5 6 7 8 9 10 11 12 13 14 15 16 17 18 19 20 21 22 23 24 25 26 27 28 29 30 31 32 33 34 35 36 37 38 39 40 41 42 43 44 45 46 47 48 49 50
000
ASUS41 KAKQ 222110
RWRAKQ

REGIONAL WEATHER ROUNDUP
NATIONAL WEATHER SERVICE WAKEFIELD VA
500 PM EDT MON SEP 22 2014

Note: "fair" indicates few or no clouds below 12,000 feet with no
significant weather and/or obstructions to visibility. * = Denotes
station may not report precipitation (e.g., rain,snow,etc.),
thunder or fog.

VAZ042-051-052>054-056-222200-
NORTHERN VIRGINIA

CITY           SKY/WX    TMP DP  RH WIND       PRES   REMARKS
WASH NATIONAL  PTSUNNY   74  43  32 N18G25    30.05R
DULLES         MOSUNNY   71  41  33 NW13G22   30.05S
FORT BELVOIR   MOSUNNY   73  43  33 NW13G21   30.04S
QUANTICO       MOSUNNY   73  42  32 N15G28    30.06R
FREDERICKSBRG* MOSUNNY   74  45  35 N8        30.04R
STAFFORD*      MOSUNNY   73  45  37 NW13G21   30.09R
WARRENTON      MOSUNNY   72  52  49 NW12G18   30.05S
CULPEPER*      SUNNY     72  43  35 N6        30.07R
MANASSAS*      MOSUNNY   72  45  37 NW14      30.05S
LEESBURG*      SUNNY     70  48  46 N15G23    30.07R
WINCHESTER     SUNNY     70  41  35 NW13      30.08S
FRONT ROYAL*   CLEAR     68  45  42 W9        30.08S
LURAY*         CLEAR     72  45  37 NW12      30.09S
$$

VAZ048-049-060>072-079>083-222200-
CENTRAL AND SOUTH CENTRAL VIRGINIA...AND NORTH CENTRAL NORTH CAROLINA

CITY           SKY/WX    TMP DP  RH WIND       PRES   REMARKS
RICHMOND       PTSUNNY   78  45  30 N10       30.04R
CHESTERFIELD*  MOCLDY   N/A N/A N/A N6        30.05R
PETERSBURG*    PTSUNNY   76  44  32 N6        30.04R
HANOVER        MOSUNNY   76  47  35 NW10      30.06R
TAPPAHANNOCK*  MOSUNNY   75  41  29 NW5       30.05R
CHARLOTTSVILLE SUNNY     74  44  34 N9        30.06R
ORANGE*        SUNNY     73  43  33 NW3       30.06S
LOUISA*        SUNNY     75  46  35 N6        30.04R
FARMVILLE*     MOSUNNY   79  46  31 N3          N/A
CREWE*         PTCLDY    76  49  38 CALM      30.04R
FORT PICKETT*  PTCLDY    74  52  45 NE3       30.05R
LUNENBURG*     PTCLDY    76  53  45 CALM      30.04S
SOUTH HILL*    MOSUNNY   77  54  44 CALM      30.09S
LAWRENCEVILLE* PTCLDY    74  55  50 CALM      30.05R
ROANOKE RAPIDS PTCLDY    73  54  49 NW6       30.04R
RALEIGH        PTSUNNY   72  52  49 N5        30.06R
$$

VAZ088>098-222200-
SOUTHEAST VIRGINIA

CITY           SKY/WX    TMP DP  RH WIND       PRES   REMARKS
NORFOLK        SUNNY     75  55  49 NE8       30.03R
VIRGINIA BEACH MOSUNNY   76  53  44 N8        30.02R
NORFOLK NAVAL  MOSUNNY   77  53  43 NE9       30.04R
WEST POINT*    MOSUNNY   77  47  34 NW5       30.06R
NEWPORT NEWS   SUNNY     79  53  40 N7        30.03R
LANGLEY AFB    SUNNY     76  53  45 N5        30.02R
FORT EUSTIS    SUNNY     76  48  37 N6        30.02R
WILLIAMSBURG*  MOSUNNY   79  55  44 CALM      30.04R
HR EXEC AP*    CLEAR     79  55  44 N3        30.04S
FRANKLIN*      SUNNY     79  48  34 W7        30.03R
WAKEFIELD      MOSUNNY   78  52  40 N3        30.03R
$$

VAZ020-022-025-037-045-222200-
WEST CENTRAL AND SOUTHWEST VIRGINIA

CITY           SKY/WX    TMP DP  RH WIND       PRES   REMARKS
STAUNTON*      SUNNY     72  38  29 N6G12     30.10R
HOT SPRINGS VA SUNNY     55  28  35 NW14G20   30.17S
LYNCHBURG      MOSUNNY   72  50  45 CALM      30.08R
DANVILLE       MOSUNNY   74  52  46 N8        30.06S
SOUTH BOSTON*  NOT AVBL
MARTINSVILLE   PTSUNNY   72  52  49 NW6       30.10R
ROANOKE        PTSUNNY   70  48  45 NW12      30.11R
BLACKSBURG     MOSUNNY   64  54  68 W6        30.15R
DUBLIN*        MOSUNNY   65  49  56 N6        30.16R
MARION*        MOSUNNY   63  48  59 W9        30.18F
HILLSVILLE*    PTSUNNY   62  48  60 NW10G16   30.15R
RICHLANDS*     MOCLDY    64  48  56 NW9       30.19S
WISE*          PTSUNNY   63  45  51 N8        30.21S
ABINGDON*      MOSUNNY   65  48  54 N8        30.16S
$$

MDZ021>025-VAZ099-100-222200-
SOUTHERN MARYLAND AND THE DELMARVA PENINSULA

CITY           SKY/WX    TMP DP  RH WIND       PRES   REMARKS
PATUXENT RIVER MOSUNNY   74  45  35 NW10      30.04R
BAY BRIDGE APT   N/A     70  45  40 NW14      30.03R
LEONARDTOWN    SUNNY     72  43  35 NW8       30.05R
DOVER          SUNNY     71  49  46 NW13      29.99R
GEORGETOWN     MOSUNNY   72  49  44 VRB7      30.02R
EASTON         MOSUNNY   72  52  49 N14G20    30.05S
CAMBRIDGE      PTSUNNY   72  48  43 W10G18    30.02R
SALISBURY      MOSUNNY   72  49  44 NW8       30.02R
OCEAN CITY     MOSUNNY   72  49  44 NW6G17    30.01R
WALLOPS ISLAND SUNNY     74  53  48 NW9       30.03R
ACCOMACK*      MOSUNNY   72  50  46 NW10      30.04R
$$

NCZ012>017-030>032-222200-
EASTERN NORTH CAROLINA

CITY           SKY/WX    TMP DP  RH WIND       PRES   REMARKS
ELIZABETH CITY MOSUNNY   75  59  57 SE8       30.02R
AHOSKIE*       MOSUNNY   75  53  47 NW5       30.03S
EDENTON*       SUNNY     78  55  44 W3        30.02S
CURRITUCK*     SUNNY     75  54  47 NE7       30.03S
KILL DEVIL HLS SUNNY     74  55  51 N5        30.01S
MANTEO         SUNNY     74  56  53 NE9       30.03R
CAPE HATTERAS  PTSUNNY   71  62  73 NE8       30.02R
TARBORO*       PTCLDY    79  53  40 CALM      30.03S
GOLDSBORO      MOSUNNY   79  58  49 CALM      30.01R
WASHINGTON     SUNNY     77  57  49 NE5       30.02S
GREENVILLE     MOSUNNY   79  55  44 CALM      30.04S
NEW BERN       SUNNY     80  57  45 N3        30.02S
WILMINGTON     SUNNY     80  58  46 N8        30.00F
$$

VAZ048-222200-
ELSEWHERE

CITY           SKY/WX    TMP DP  RH WIND       PRES   REMARKS
HARRISBURG PA  MOSUNNY   66  42  41 NW15G24   30.05R
BALTIMORE      PTSUNNY   71  45  39 NW12G18   30.03R
ANNAPOLIS      MOSUNNY   70  48  45 MISG      30.03R
ANDREWS AFB    MOSUNNY   71  45  39 NW16G22   30.03S
WILMINGTON DE  MOSUNNY   69  46  43 NW18G24   30.02R
PHILADELPHIA   PTSUNNY   70  45  40 NW16      30.00R
WILDWOOD NJ*   SUNNY     70  46  43 NW13      30.01R
ATLANTIC CITY  PTSUNNY   70  50  49 NW13      29.98R
HENDERSON NC   PTSUNNY   73  51  44 NW6       30.06R
GREENSBORO     PTSUNNY   73  50  44 NE9       30.06S
ROCKY MOUNT    MOSUNNY   78  54  43 NW9       30.03S
FAYETTEVILLE   MOSUNNY   77  54  44 NE8       30.01F
CHARLOTTE      CLOUDY    73  54  51 N7        30.06S
$$

VAZ100-222200-
MARINE

STATION/POSITION TIME  TEMP    WIND        PRES    WAVE   SWELL
                       AIR SEA DIR/SP/G            HT/PER HT/PER
                 (UTC) (F)     (DEG/KT/KT) (MB)    (FT/S) (FT/S)
44066 TX TWR #4  2100   69 71  300/ 12/ 16 1013.8R   7/10   7/10
CAPE MAY NJ      2100   70 75  330/ 12/ 19 1015.3S
LEWES DE         2100   70 72  350/ 12/ 14 1015.7R
15NM E FENWICK I 2100   70 72              1015.5R   3/ 9
OCEAN-CITY-INLET 2100   71 72  340/  7/ 10 1015.5S
WACHAPREAGUE VA  2100   72 75  340/  6/ 12 1016.9R
THOMAS POINT MD  2100   69 74  300/ 15/ 17 1017.8R
GOOSES REEF MD   2100   70     330/ 14/ 17 1017.0R
COVE POINT MD    2100   69     340/ 15/ 19 1017.0R
SOLOMONS ISLAND  2100      76                N/A
BISHOPS HEAD MD  2100   71 72  330/ 10/ 15 1016.6R
PINEY POINT MD   2100          330/ 11/ 14   N/A
POTOMAC MD       2100   72     300/ 14/ 17 1016.2R
CAMBRIDGE MD     2100   71 73  300/ 10/ 16 1016.4R
LEWISETTA VA     2100   72 74  310/  7/ 10 1017.0R
RAPPAHANNOCK LGT 2100          350/ 14/ 15 1017.4R
STINGRAY PT      2100   73      10/  6/ 10   N/A
YORK RVR RNG VA  2100   74      20/  6/  7 1016.4R
YORKTOWN VA      2100   74 76  320/  9/ 11 1016.5R
JAMESTOWN VA     2100   74     340/  4/  8   N/A
DOMINION TERM VA 2100   76     330/  6/  9 1016.8R
KIPTOPEKE VA     2100      79  350/  9/ 11   N/A
CHES BAY BRIDGE  2100   72 75   40/  5/  7 1016.5R
CAPE HENRY VA    2100   72     350/  8/ 10 1015.7R
CHESAPEAKE LGHT  2000   72     360/  6/  7 1017.0R
WILLOUBY STN VA  2100   73      80/  7/  8 1015.7R
S CRANEY ISL VA  2100           10/  4/  6 1016.5R
CAPE HENRY BUOY  2100      75                N/A     3/ 8
1ST LANDING BUOY 2100   73      20/  4/  6 1016.6R
CAPE CHARLES BUO 2100      74                N/A     2/ 8   2/ 8
OFFSHORE WE BUOY 2100      74                N/A     4/ 9   3/ 9
64NM E OF VA BCH 2100   71 77  350/ 10/ 14 1016.4R   4/ 8   3/ 8
DUCK PIER NC     2100   72 75   40/ 10/ 11 1016.0S
44100 DUCK FRF   2100      74                N/A     3/ 8
44056 DUCK FRF   2100                        N/A     3/ 8
OREGON INLET NC  2100   73 75   30/ 10/ 13 1016.5R
DIAMOND SHLS NC  2100   75     360/ 14/ 16 1016.1R   4/ 8   3/ 8
CAPE LOOKOUT NC  2000   77      20/  9/ 11 1015.8R
$$



USA.gov is the U.S. government's official web portal to all federal, state and local government web resources and services.